Flag for Argentina Weather past 2 weeks in Buenos Aires, Argentina

Now
66 °F

Passing clouds.


Feels Like: 66 °F
Forecast: 60 / 72 °F
Wind: 2 mph from Northwest

Location: Buenos Aires Airport

Current Time: Mar 28, 2015 at 9:18:20 AM

Latest Report: Mar 28, 2015 at 9:00 AM


Visibility: N/A

Pressure: 30.18 "Hg

Humidity: 83%

Dew point: 61 °F

Location of Buenos AiresLocation

Historic Weather in Buenos Aires — Graph

°F

Buenos Aires temperature yesterday

Maximum temperature yesterday: 72 °F (at 2:00 PM)
Minimum temperature yesterday: 59 °F (at 6:00 AM)
Average temperature yesterday: 66 °F

Past Weeks' High & Low Weather Summary

 TemperatureHumidityPressure
High90 °F (Mar 20, 4:00 PM)89% (Mar 18, 2:00 AM)30.21 "Hg (Mar 18, 2:00 AM)
Low55 °F (Mar 21, 5:00 AM)31% (Mar 20, 5:00 PM)29.77 "Hg (Mar 13, 4:00 PM)
Average71 °F64%30.03 "Hg
* Reported Mar 13 8:00 AM — Mar 28 8:00 AM, Buenos Aires, Weather by CustomWeather, © 2015

Note: Actual official high and low records may vary slightly from our data, if they occured in-between our weather recording intervals... More about our weather records

Advertising

Buenos Aires weather history for previous 24 hours

 ConditionsComfort  
Time TempWeatherWind HumidityBarometerVisibility
8:00 AM
Sat, Mar 28
64 °FPassing clouds.3 mph83%30.18 "HgN/A
7:00 AM64 °FSunny.6 mph73%30.18 "Hg10 mi
6:00 AM64 °FClear.7 mph73%30.15 "Hg10 mi
5:00 AM64 °FClear.7 mph64%30.15 "Hg10 mi
3:00 AM64 °FClear.7 mph68%30.15 "Hg10 mi
2:00 AM64 °FClear.5 mph73%30.15 "Hg10 mi
12:00 AM64 °FClear.5 mph73%30.15 "Hg10 mi
11:00 PM
Fri, Mar 27
64 °FClear.6 mph73%30.15 "Hg10 mi
10:00 PM66 °FClear.6 mph64%30.15 "Hg10 mi
9:00 PM66 °FClear.6 mph64%30.15 "Hg10 mi
8:00 PM68 °FClear.6 mph53%30.12 "Hg10 mi
7:00 PM68 °FClear.6 mph53%30.12 "Hg10 mi
6:00 PM70 °FClear.6 mph50%30.09 "Hg10 mi
4:00 PM72 °FSunny.7 mph47%30.12 "Hg10 mi
3:00 PM72 °FSunny.7 mph47%30.12 "Hg10 mi
2:00 PM72 °FSunny.6 mph44%30.15 "Hg10 mi
1:00 PM70 °FSunny.5 mph43%30.15 "Hg10 mi
12:00 PM70 °FScattered clouds.8 mph43%30.18 "HgN/A
11:00 AM70 °FPassing clouds.5 mph50%30.18 "HgN/A
10:00 AM68 °FPassing clouds.6 mph56%30.18 "HgN/A
9:00 AM64 °FSunny.6 mph64%30.18 "Hg10 mi
Weather by CustomWeather, © 2015

See weather overviewHow to use our weather pages